Location: Elm Mott Branch
(32.1549°N, 97.5139°W)
Time: 10:49:19
(UTC+00:00)

ATLAS 3B R/B - Pass Details

Date: 18 November 2025
Orbit: 935 x 1258 km, 63.8° (Epoch: 07 December)

Event Time Altitude Azimuth Distance (km) Brightness Sun altitude
Exits shadow 12:03:11 15° 276° (W) 2,727 4.2 -12.6°
Maximum altitude 12:07:11 23° 315° (NW) 2,335 4.0 -11.8°
Drops below altitude 10° 12:13:08 10° 5° (N) 3,227 5.1 -10.6°
Sets 12:16:44 0° 19° (NNE) 4,211 5.9 -9.9°
